{"data":{"norad_id":51888,"intl_designator":"2022-022AN","name":"STARLINK-3536","alt_names":[],"object_type":"PAYLOAD","status":"ACTIVE","operator":null,"country":"US","launch_date":"2022-03-03","launch_site_code":"AFETR","launch_vehicle":null,"mission":null,"orbit_class":"UNKNOWN","rcs_meters":null,"size_class":null,"mass_kg":null,"dimensions":null,"purposes":["comms"],"wikipedia_slug":null,"has_3d_model":false,"image_url":null,"decayed_at":null,"tle_current":{"epoch":"2026-09-20T04:32:47.926176Z","epoch_age_seconds":83087,"freshness":"FRESH","line1":"1 51888U 22022AN  26263.18944359  .00000204  00000+0  17531-4 0  9996","line2":"2 51888  53.1589 191.3841 0001289  93.9798 266.1352 15.33545774252812","mean_motion":15.33545774,"eccentricity":0.0001289,"inclination_deg":53.1589,"raan_deg":191.3841,"arg_perigee_deg":93.9798,"mean_anomaly_deg":266.1352,"bstar":1.7531e-5,"rev_number":25281,"period_min":93.900033791883,"perigee_km":464.36124664569,"apogee_km":466.12547010208,"semimajor_km":6843.3803583739,"source":"CELESTRAK","updated_at":"2026-09-20T09:00:39.972769Z"}}}